SWA975 KBUR-KOAK

Flight info

Callsign SWA975
Flight time 1h 7m
Altitude 38000
Route OROSZ2 COREZ RGOOD EMZOH4
Aircraft B38M/M-SADE2E3GHIJ4J7P2RWZ/LB1D1

Departure

Time 2026-05-04 01:49
Airport Hollywood Burbank/Bob Hope Airport (KBUR)

Arrival

Time 2026-05-04 02:57
Airport San Francisco Bay Oakland International Airport (KOAK)
Time Latitude Longitude Altitude Speed Heading
2026-05-04 01:11 34.20264 -118.35529 736 ft 0 kts 77°
2026-05-04 01:34 34.20262 -118.35539 736 ft 4 kts 68°
2026-05-04 01:35 34.20249 -118.35560 734 ft 3 kts 49°
2026-05-04 01:35 34.20231 -118.35576 733 ft 4 kts
2026-05-04 01:35 34.20207 -118.35569 733 ft 4 kts 337°
2026-05-04 01:35 34.20196 -118.35564 733 ft 1 kts 347°
2026-05-04 01:44 34.20202 -118.35566 733 ft 4 kts 347°
2026-05-04 01:45 34.20261 -118.35582 736 ft 11 kts 346°
2026-05-04 01:45 34.20292 -118.35637 738 ft 8 kts 298°
2026-05-04 01:45 34.20447 -118.35695 746 ft 19 kts 347°
2026-05-04 01:46 34.20601 -118.35737 752 ft 24 kts 347°
2026-05-04 01:46 34.20756 -118.35780 767 ft 21 kts 347°
2026-05-04 01:46 34.20886 -118.35816 778 ft 18 kts 347°
2026-05-04 01:46 34.21025 -118.35854 785 ft 20 kts 347°
2026-05-04 01:47 34.21142 -118.35891 787 ft 10 kts 331°
2026-05-04 01:47 34.21157 -118.35906 787 ft 0 kts 315°
2026-05-04 01:48 34.21167 -118.35917 787 ft 5 kts 315°
2026-05-04 01:48 34.21205 -118.35994 788 ft 10 kts 269°
2026-05-04 01:48 34.21154 -118.36025 789 ft 9 kts 170°
2026-05-04 01:49 34.20959 -118.35971 787 ft 67 kts 167°
2026-05-04 01:49 34.20201 -118.35762 732 ft 149 kts 167°
2026-05-04 01:49 34.19104 -118.35471 1336 ft 164 kts 168°
2026-05-04 01:49 34.17974 -118.35344 2163 ft 168 kts 186°
2026-05-04 01:50 34.16838 -118.35794 2624 ft 182 kts 211°
2026-05-04 01:50 34.15795 -118.36749 3301 ft 197 kts 220°
2026-05-04 01:50 34.14697 -118.37882 3905 ft 219 kts 219°
2026-05-04 01:50 34.13479 -118.39134 3868 ft 240 kts 219°
2026-05-04 01:51 34.12168 -118.40466 3868 ft 252 kts 219°
2026-05-04 01:51 34.10831 -118.41875 4212 ft 256 kts 225°
2026-05-04 01:51 34.09794 -118.43621 5289 ft 257 kts 246°
2026-05-04 01:51 34.09428 -118.45598 6747 ft 252 kts 270°
2026-05-04 01:52 34.09733 -118.47738 7653 ft 270 kts 289°
2026-05-04 01:52 34.10706 -118.49713 8663 ft 281 kts 311°
2026-05-04 01:52 34.12254 -118.51214 9750 ft 291 kts 327°
2026-05-04 01:52 34.14124 -118.52214 10790 ft 296 kts 340°
2026-05-04 01:53 34.16017 -118.52897 12181 ft 280 kts 339°
2026-05-04 01:53 34.17873 -118.53606 13244 ft 280 kts 336°
2026-05-04 01:53 34.19712 -118.54483 13982 ft 288 kts 332°
2026-05-04 01:53 34.21565 -118.55483 14651 ft 295 kts 329°
2026-05-04 01:54 34.23418 -118.56596 15409 ft 301 kts 326°
2026-05-04 01:54 34.25296 -118.57761 16262 ft 305 kts 326°
2026-05-04 01:54 34.27194 -118.58920 17281 ft 305 kts 326°
2026-05-04 01:54 34.29115 -118.60033 18257 ft 308 kts 327°
2026-05-04 01:55 34.31072 -118.61129 18956 ft 314 kts 326°
2026-05-04 01:55 34.33120 -118.62228 19454 ft 329 kts 327°
2026-05-04 01:55 34.35233 -118.63362 19977 ft 338 kts 327°
2026-05-04 01:55 34.37389 -118.64531 20625 ft 340 kts 326°
2026-05-04 01:56 34.39538 -118.65702 21306 ft 342 kts 325°
2026-05-04 01:56 34.41717 -118.66897 21980 ft 346 kts 324°
2026-05-04 01:56 34.43798 -118.68285 22578 ft 338 kts 315°
2026-05-04 01:56 34.45835 -118.69763 23180 ft 345 kts 318°
2026-05-04 01:57 34.47928 -118.71215 23778 ft 347 kts 318°
2026-05-04 01:57 34.50024 -118.72674 24304 ft 349 kts 318°
2026-05-04 01:57 34.52132 -118.74141 24824 ft 350 kts 318°
2026-05-04 01:57 34.54244 -118.75611 25367 ft 351 kts 317°
2026-05-04 01:58 34.56367 -118.77091 25855 ft 352 kts 317°
2026-05-04 01:58 34.58488 -118.78592 26375 ft 353 kts 317°
2026-05-04 01:58 34.60612 -118.80095 26806 ft 356 kts 318°
2026-05-04 01:58 34.62764 -118.81623 27170 ft 359 kts 317°
2026-05-04 01:59 34.64917 -118.83151 27646 ft 359 kts 317°
2026-05-04 01:59 34.67077 -118.84692 27846 ft 361 kts 317°
2026-05-04 01:59 34.69246 -118.86230 28273 ft 361 kts 317°
2026-05-04 01:59 34.71421 -118.87773 28630 ft 364 kts 317°
2026-05-04 02:00 34.73617 -118.89335 28997 ft 366 kts 317°
2026-05-04 02:00 34.75820 -118.90903 29362 ft 367 kts 317°
2026-05-04 02:00 34.78028 -118.92475 29754 ft 368 kts 317°
2026-05-04 02:00 34.80239 -118.94048 30034 ft 370 kts 317°
2026-05-04 02:01 34.82460 -118.95632 30263 ft 370 kts 317°
2026-05-04 02:01 34.84657 -118.97201 30531 ft 372 kts 316°
2026-05-04 02:01 34.89169 -119.00430 30884 ft 374 kts 316°
2026-05-04 02:02 34.91380 -119.02004 31240 ft 373 kts 315°
2026-05-04 02:02 34.93625 -119.03609 31492 ft 374 kts 315°
2026-05-04 02:02 34.95871 -119.05215 31768 ft 375 kts 315°
2026-05-04 02:02 34.98137 -119.06836 31897 ft 381 kts 315°
2026-05-04 02:03 35.00453 -119.08498 31895 ft 392 kts 315°
2026-05-04 02:03 35.02834 -119.10207 31892 ft 402 kts 316°
2026-05-04 02:03 35.07773 -119.13749 31895 ft 421 kts 316°
2026-05-04 02:04 35.12922 -119.17450 31890 ft 437 kts 316°
2026-05-04 02:04 35.18238 -119.21275 31902 ft 448 kts 317°
2026-05-04 02:05 35.23613 -119.25151 31923 ft 449 kts 317°
2026-05-04 02:05 35.28991 -119.29035 31906 ft 448 kts 317°
2026-05-04 02:06 35.34364 -119.32921 31932 ft 448 kts 317°
2026-05-04 02:06 35.39744 -119.36818 31915 ft 449 kts 317°
2026-05-04 02:07 35.45123 -119.40721 31913 ft 449 kts 317°
2026-05-04 02:07 35.50505 -119.44632 31915 ft 450 kts 317°
2026-05-04 02:08 35.55854 -119.48613 31928 ft 440 kts 311°
2026-05-04 02:08 35.60536 -119.53356 31926 ft 437 kts 309°
2026-05-04 02:09 35.65200 -119.58111 31924 ft 435 kts 308°
2026-05-04 02:09 35.69854 -119.62869 31934 ft 435 kts 308°
2026-05-04 02:10 35.74502 -119.67627 31928 ft 434 kts 308°
2026-05-04 02:10 35.79158 -119.72402 31932 ft 435 kts 308°
2026-05-04 02:11 35.83773 -119.77142 31926 ft 435 kts 308°
2026-05-04 02:11 35.88412 -119.81914 31941 ft 435 kts 308°
2026-05-04 02:12 35.90703 -119.84309 31916 ft 421 kts 304°
2026-05-04 02:12 35.92765 -119.86788 31694 ft 410 kts 303°
2026-05-04 02:12 35.94799 -119.89225 31468 ft 405 kts 303°
2026-05-04 02:12 35.96820 -119.91629 31246 ft 402 kts 303°
2026-05-04 02:13 35.98831 -119.94012 31018 ft 400 kts 303°
2026-05-04 02:13 36.00832 -119.96381 30809 ft 398 kts 303°
2026-05-04 02:13 36.02827 -119.98742 30592 ft 396 kts 303°
2026-05-04 02:13 36.04810 -120.01091 30394 ft 395 kts 304°
2026-05-04 02:14 36.06791 -120.03440 30198 ft 395 kts 304°
2026-05-04 02:14 36.08770 -120.05787 29992 ft 393 kts 304°
2026-05-04 02:14 36.10743 -120.08128 29723 ft 392 kts 304°
2026-05-04 02:14 36.12712 -120.10467 29482 ft 392 kts 304°
2026-05-04 02:15 36.14679 -120.12806 29237 ft 393 kts 304°
2026-05-04 02:15 36.16644 -120.15144 28971 ft 391 kts 304°
2026-05-04 02:15 36.18598 -120.17470 28742 ft 390 kts 305°
2026-05-04 02:15 36.20554 -120.19802 28512 ft 392 kts 306°
2026-05-04 02:16 36.22533 -120.22163 28253 ft 396 kts 307°
2026-05-04 02:16 36.24513 -120.24524 28009 ft 396 kts 307°
2026-05-04 02:16 36.26495 -120.26890 27920 ft 396 kts 307°
2026-05-04 02:16 36.28484 -120.29268 27948 ft 397 kts 307°
2026-05-04 02:17 36.30467 -120.31640 27938 ft 397 kts 307°
2026-05-04 02:17 36.32460 -120.34024 27944 ft 397 kts 307°
2026-05-04 02:17 36.34447 -120.36404 27937 ft 397 kts 307°
2026-05-04 02:17 36.36437 -120.38789 27952 ft 398 kts 308°
2026-05-04 02:18 36.38438 -120.41191 27958 ft 402 kts 308°
2026-05-04 02:18 36.40449 -120.43603 27956 ft 403 kts 308°
2026-05-04 02:18 36.42459 -120.46018 27949 ft 403 kts 308°
2026-05-04 02:18 36.44475 -120.48440 27967 ft 403 kts 308°
2026-05-04 02:19 36.46489 -120.50864 27939 ft 403 kts 308°
2026-05-04 02:19 36.48499 -120.53283 27949 ft 403 kts 308°
2026-05-04 02:19 36.49833 -120.54890 27940 ft 403 kts 308°
2026-05-04 02:19 36.51858 -120.57332 27946 ft 405 kts 308°
2026-05-04 02:20 36.53910 -120.59727 27861 ft 406 kts 311°
2026-05-04 02:20 36.56025 -120.62043 27600 ft 403 kts 311°
2026-05-04 02:20 36.58119 -120.64355 27365 ft 403 kts 311°
2026-05-04 02:20 36.60211 -120.66676 27119 ft 402 kts 311°
2026-05-04 02:21 36.62295 -120.68992 26875 ft 402 kts 311°
2026-05-04 02:21 36.64387 -120.71319 26627 ft 404 kts 312°
2026-05-04 02:21 36.66477 -120.73646 26376 ft 402 kts 312°
2026-05-04 02:21 36.68561 -120.75971 26138 ft 403 kts 314°
2026-05-04 02:22 36.70663 -120.78314 25894 ft 407 kts 314°
2026-05-04 02:22 36.72775 -120.80670 25658 ft 407 kts 314°
2026-05-04 02:22 36.74883 -120.83025 25405 ft 407 kts 315°
2026-05-04 02:22 36.76993 -120.85380 25160 ft 407 kts 315°
2026-05-04 02:23 36.79107 -120.87719 24863 ft 406 kts 315°
2026-05-04 02:23 36.81220 -120.90058 24309 ft 406 kts 315°
2026-05-04 02:23 36.83326 -120.92394 23770 ft 405 kts 316°
2026-05-04 02:23 36.85427 -120.94725 23164 ft 403 kts 317°
2026-05-04 02:24 36.87521 -120.97051 22541 ft 403 kts 317°
2026-05-04 02:24 36.89610 -120.99371 21923 ft 402 kts 317°
2026-05-04 02:24 36.91675 -121.01667 21321 ft 402 kts 316°
2026-05-04 02:24 36.93768 -121.03997 20709 ft 402 kts 316°
2026-05-04 02:25 36.95855 -121.06321 20111 ft 402 kts 316°
2026-05-04 02:25 36.97942 -121.08647 19549 ft 402 kts 316°
2026-05-04 02:25 37.00026 -121.10972 18977 ft 401 kts 317°
2026-05-04 02:25 37.02112 -121.13298 18408 ft 402 kts 317°
2026-05-04 02:26 37.04198 -121.15628 17777 ft 402 kts 317°
2026-05-04 02:26 37.06308 -121.17988 17124 ft 402 kts 317°
2026-05-04 02:26 37.08362 -121.20286 16525 ft 401 kts 316°
2026-05-04 02:26 37.10441 -121.22615 15905 ft 401 kts 316°
2026-05-04 02:27 37.12479 -121.24896 15337 ft 386 kts 316°
2026-05-04 02:27 37.14473 -121.27199 14741 ft 385 kts 315°
2026-05-04 02:27 37.16382 -121.29421 14266 ft 373 kts 316°
2026-05-04 02:27 37.18272 -121.31614 13836 ft 359 kts 315°
2026-05-04 02:28 37.20102 -121.33740 13352 ft 359 kts 315°
2026-05-04 02:28 37.21905 -121.35833 12858 ft 358 kts 315°
2026-05-04 02:28 37.23732 -121.37958 12393 ft 358 kts 315°
2026-05-04 02:28 37.25557 -121.40081 11910 ft 358 kts 315°
2026-05-04 02:29 37.27363 -121.42188 11443 ft 348 kts 315°
2026-05-04 02:29 37.29111 -121.44220 10973 ft 336 kts 315°
2026-05-04 02:29 37.30798 -121.46185 10510 ft 327 kts 314°
2026-05-04 02:29 37.32440 -121.48101 10062 ft 317 kts 315°
2026-05-04 02:30 37.34034 -121.49963 9652 ft 311 kts 316°
2026-05-04 02:30 37.35614 -121.51808 9326 ft 308 kts 315°
2026-05-04 02:30 37.37173 -121.53631 9048 ft 304 kts 316°
2026-05-04 02:30 37.38711 -121.55394 8909 ft 295 kts 316°
2026-05-04 02:31 37.40209 -121.57103 8798 ft 286 kts 316°
2026-05-04 02:31 37.41658 -121.58759 8654 ft 277 kts 316°
2026-05-04 02:31 37.43059 -121.60363 8520 ft 269 kts 316°
2026-05-04 02:31 37.44363 -121.62013 8231 ft 264 kts 305°
2026-05-04 02:32 37.45387 -121.63920 7943 ft 262 kts 304°
2026-05-04 02:32 37.46459 -121.65776 7637 ft 263 kts 304°
2026-05-04 02:32 37.47538 -121.67650 7309 ft 265 kts 304°
2026-05-04 02:32 37.48620 -121.69538 7010 ft 266 kts 304°
2026-05-04 02:33 37.49696 -121.71419 6754 ft 264 kts 304°
2026-05-04 02:33 37.50645 -121.73352 6189 ft 270 kts 284°
2026-05-04 02:33 37.50966 -121.75628 6198 ft 254 kts 280°
2026-05-04 02:33 37.51635 -121.77626 6101 ft 249 kts 294°
2026-05-04 02:34 37.52213 -121.79708 5905 ft 260 kts 282°
2026-05-04 02:34 37.52701 -121.81977 5646 ft 268 kts 283°
2026-05-04 02:34 37.53220 -121.84217 5353 ft 271 kts 284°
2026-05-04 02:34 37.53765 -121.86465 5151 ft 266 kts 284°
2026-05-04 02:35 37.54310 -121.88665 5026 ft 258 kts 284°
2026-05-04 02:35 37.54756 -121.90798 4939 ft 246 kts 276°
2026-05-04 02:35 37.54981 -121.92897 4782 ft 238 kts 274°
2026-05-04 02:35 37.55209 -121.94936 4642 ft 231 kts 275°
2026-05-04 02:36 37.55441 -121.96910 4502 ft 224 kts 275°
2026-05-04 02:36 37.55673 -121.98805 4421 ft 214 kts 277°
2026-05-04 02:36 37.56275 -122.00525 4219 ft 220 kts 303°
2026-05-04 02:36 37.57236 -122.02011 3995 ft 217 kts 306°
2026-05-04 02:37 37.58194 -122.03482 3720 ft 217 kts 306°
2026-05-04 02:37 37.59142 -122.04925 3458 ft 210 kts 306°
2026-05-04 02:37 37.60069 -122.06324 3171 ft 206 kts 306°
2026-05-04 02:37 37.60970 -122.07676 2883 ft 193 kts 306°
2026-05-04 02:38 37.61780 -122.08884 2587 ft 170 kts 306°
2026-05-04 02:38 37.62511 -122.09980 2250 ft 157 kts 306°
2026-05-04 02:38 37.63195 -122.11007 1920 ft 150 kts 306°
2026-05-04 02:38 37.63859 -122.12005 1531 ft 147 kts 306°
2026-05-04 02:39 37.64529 -122.12999 1207 ft 149 kts 304°
2026-05-04 02:39 37.65202 -122.13960 1059 ft 145 kts 304°
2026-05-04 02:39 37.65855 -122.14939 987 ft 146 kts 304°
2026-05-04 02:39 37.66498 -122.15923 839 ft 145 kts 307°
2026-05-04 02:40 37.67149 -122.16906 729 ft 147 kts 306°
2026-05-04 02:40 37.67789 -122.17886 566 ft 144 kts 307°
2026-05-04 02:40 37.68449 -122.18853 450 ft 148 kts 305°
2026-05-04 02:40 37.69102 -122.19820 337 ft 145 kts 305°
2026-05-04 02:41 37.69741 -122.20800 180 ft 144 kts 304°
2026-05-04 02:41 37.70373 -122.21776 27 ft 140 kts 309°
2026-05-04 02:41 37.71044 -122.22777 337 ft 162 kts 308°
2026-05-04 02:41 37.71805 -122.23855 1283 ft 169 kts 310°
2026-05-04 02:42 37.72625 -122.25003 2422 ft 181 kts 303°
2026-05-04 02:42 37.73335 -122.26385 3487 ft 199 kts 298°
2026-05-04 02:42 37.74127 -122.27952 4639 ft 219 kts 300°
2026-05-04 02:42 37.74970 -122.29597 5765 ft 231 kts 300°
2026-05-04 02:43 37.75852 -122.31338 6941 ft 239 kts 300°
2026-05-04 02:43 37.76757 -122.33155 7582 ft 251 kts 300°
2026-05-04 02:43 37.77679 -122.35023 7424 ft 250 kts 301°
2026-05-04 02:43 37.78761 -122.36720 7274 ft 249 kts 322°
2026-05-04 02:44 37.80325 -122.37581 7107 ft 246 kts 354°
2026-05-04 02:44 37.82004 -122.37471 6844 ft 242 kts 15°
2026-05-04 02:44 37.83457 -122.36504 6576 ft 235 kts 45°
2026-05-04 02:44 37.84429 -122.34910 6283 ft 231 kts 64°
2026-05-04 02:45 37.85205 -122.33147 6213 ft 233 kts 65°
2026-05-04 02:45 37.85925 -122.31281 6181 ft 236 kts 80°
2026-05-04 02:45 37.85983 -122.29249 6200 ft 232 kts 101°
2026-05-04 02:45 37.85734 -122.27228 6197 ft 233 kts 103°
2026-05-04 02:46 37.85466 -122.25206 6189 ft 232 kts 103°
2026-05-04 02:46 37.85057 -122.23257 5900 ft 229 kts 117°
2026-05-04 02:46 37.84254 -122.21531 5612 ft 226 kts 131°
2026-05-04 02:46 37.83213 -122.20042 5296 ft 227 kts 134°
2026-05-04 02:47 37.82163 -122.18573 5087 ft 222 kts 134°
2026-05-04 02:47 37.81133 -122.17118 5034 ft 222 kts 134°
2026-05-04 02:47 37.80105 -122.15662 5023 ft 223 kts 134°
2026-05-04 02:47 37.79071 -122.14195 4992 ft 224 kts 134°
2026-05-04 02:48 37.78038 -122.12722 4994 ft 224 kts 134°
2026-05-04 02:48 37.77007 -122.11255 4923 ft 220 kts 132°
2026-05-04 02:48 37.76073 -122.09706 4587 ft 221 kts 133°
2026-05-04 02:48 37.75038 -122.08297 4417 ft 219 kts 135°
2026-05-04 02:49 37.73993 -122.06869 4385 ft 223 kts 135°
2026-05-04 02:49 37.72937 -122.05409 4409 ft 227 kts 135°
2026-05-04 02:49 37.71883 -122.03940 4359 ft 225 kts 135°
2026-05-04 02:49 37.70842 -122.02475 4382 ft 225 kts 135°
2026-05-04 02:50 37.69789 -122.00993 4386 ft 227 kts 134°
2026-05-04 02:50 37.68755 -121.99528 4357 ft 219 kts 135°
2026-05-04 02:50 37.67757 -121.98112 4161 ft 215 kts 135°
2026-05-04 02:50 37.66617 -121.96961 3893 ft 210 kts 161°
2026-05-04 02:51 37.65227 -121.96833 3886 ft 193 kts 196°
2026-05-04 02:51 37.64044 -121.97494 3851 ft 182 kts 214°
2026-05-04 02:51 37.63181 -121.98578 3802 ft 171 kts 234°
2026-05-04 02:51 37.62735 -121.99898 3714 ft 163 kts 253°
2026-05-04 02:52 37.62490 -122.01266 3533 ft 159 kts 254°
2026-05-04 02:52 37.62244 -122.02638 3302 ft 158 kts 254°
2026-05-04 02:52 37.62008 -122.03964 3117 ft 154 kts 255°
2026-05-04 02:52 37.61771 -122.05301 2843 ft 154 kts 255°
2026-05-04 02:53 37.61544 -122.06580 2703 ft 149 kts 256°
2026-05-04 02:53 37.61513 -122.07889 2567 ft 153 kts 285°
2026-05-04 02:53 37.62062 -122.09042 2572 ft 153 kts 302°
2026-05-04 02:53 37.62718 -122.10111 2560 ft 153 kts 303°
2026-05-04 02:54 37.63387 -122.11169 2482 ft 156 kts 305°
2026-05-04 02:54 37.64068 -122.12186 2437 ft 145 kts 306°
2026-05-04 02:54 37.64701 -122.13126 2194 ft 137 kts 304°
2026-05-04 02:54 37.65311 -122.14068 1862 ft 139 kts 304°
2026-05-04 02:55 37.66538 -122.15971 1198 ft 140 kts 306°
2026-05-04 02:55 37.67170 -122.16914 897 ft 143 kts 307°
2026-05-04 02:55 37.67811 -122.17846 736 ft 137 kts 306°
2026-05-04 02:56 37.68411 -122.18752 552 ft 133 kts 304°
2026-05-04 02:56 37.68996 -122.19645 381 ft 131 kts 304°
2026-05-04 02:56 37.69564 -122.20529 206 ft 129 kts 304°
2026-05-04 02:56 37.70144 -122.21402 59 ft 129 kts 305°
2026-05-04 02:57 37.70669 -122.22206 12 ft 108 kts 309°
2026-05-04 02:57 37.70995 -122.22694 10 ft 34 kts 310°
2026-05-04 02:57 37.71132 -122.22900 12 ft 29 kts 310°
2026-05-04 02:57 37.71293 -122.23075 12 ft 32 kts 330°
2026-05-04 02:58 37.71455 -122.23145 11 ft 18 kts 359°
2026-05-04 02:58 37.71483 -122.23051 14 ft 15 kts 125°
2026-05-04 02:58 37.71393 -122.22915 12 ft 27 kts 130°
2026-05-04 02:58 37.71266 -122.22725 12 ft 28 kts 130°
2026-05-04 02:59 37.71187 -122.22581 12 ft 13 kts 88°
2026-05-04 02:59 37.71245 -122.22475 13 ft 17 kts 48°
2026-05-04 02:59 37.71326 -122.22361 11 ft 15 kts 52°
2026-05-04 02:59 37.71325 -122.22239 11 ft 17 kts 127°
2026-05-04 03:00 37.71229 -122.22096 11 ft 26 kts 130°
2026-05-04 03:00 37.71114 -122.21925 11 ft 15 kts 129°
2026-05-04 03:00 37.71037 -122.21827 11 ft 17 kts 142°
2026-05-04 03:00 37.70951 -122.21705 11 ft 18 kts 126°
2026-05-04 03:01 37.70882 -122.21586 12 ft 14 kts 124°
2026-05-04 03:01 37.70890 -122.21491 11 ft 10 kts 44°
2026-05-04 03:01 37.70917 -122.21429 11 ft 9 kts 102°
2026-05-04 03:01 37.70896 -122.21365 12 ft 5 kts 114°
2026-05-04 03:02 37.70890 -122.21348 11 ft 0 kts 114°